PBO Station Position Time Series. Reference Frame : NAM14
Format Version,1.1.1
4-character ID,P824
Station name,Vernonia2_OR2023
Begin Date, 2023-04-27
End Date, 2023-06-26
Release Date, 2023-06-27
Reference position, 45.8530955594 North Latitude, -123.2477187817 East Longitude, 177.69980 meters elevation,
Date, North (mm), East (mm), Vertical (mm), North Std. Deviation (mm), East Std. Deviation (mm),              Vertical Std. Deviation (mm), Quality,
2023-04-27,0.00, 0.00, 0.00, 2.02, 1.41, 7.03, final,
2023-04-28,-0.34, 0.50, 0.47, 2.02, 1.41, 7.03, final,
2023-04-29,-1.11, -1.11, -2.38, 2.02, 1.42, 7.06, final,
2023-04-30,0.51, -2.52, 4.87, 2.05, 1.44, 7.18, final,
2023-05-01,-0.04, -0.99, 5.54, 2.03, 1.42, 7.03, final,
2023-05-02,-0.25, -1.03, 5.69, 2.02, 1.42, 7.03, final,
2023-05-03,-0.37, -1.11, 0.75, 2.01, 1.42, 7.00, final,
2023-05-04,0.32, -0.05, 0.15, 2.01, 1.42, 6.95, final,
2023-05-05,-2.33, -1.36, -0.93, 2.01, 1.42, 6.96, final,
2023-05-06,-0.73, -1.04, -5.93, 2.01, 1.42, 6.95, final,
2023-05-07,0.02, -1.59, 0.07, 2.02, 1.43, 6.99, final,
2023-05-08,-0.93, -0.17, -1.15, 2.00, 1.42, 6.95, final,
2023-05-09,-0.26, -0.65, -1.60, 2.00, 1.43, 6.96, final,
2023-05-10,-1.55, -0.65, 0.98, 1.99, 1.42, 6.90, final,
2023-05-11,-1.14, 0.19, -0.31, 2.00, 1.43, 6.96, final,
2023-05-12,-0.62, -0.65, -1.98, 2.02, 1.43, 7.03, final,
2023-05-13,-1.55, 0.22, -3.16, 1.99, 1.43, 6.98, final,
2023-05-14,-0.12, -1.00, -5.20, 1.99, 1.43, 6.96, final,
2023-05-15,-0.19, -0.24, -3.79, 1.99, 1.43, 7.01, final,
2023-05-16,-1.08, -0.46, -1.19, 1.98, 1.43, 6.95, final,
2023-05-17,-0.70, -0.42, 1.72, 2.00, 1.43, 7.02, final,
2023-05-18,-0.29, 0.02, -2.45, 2.02, 1.46, 7.18, final,
2023-05-19,0.06, -0.85, -0.04, 2.05, 1.48, 7.31, final,
2023-05-20,-0.79, 0.34, 1.42, 2.03, 1.45, 7.11, final,
2023-05-21,-0.75, -0.93, 6.16, 2.04, 1.46, 7.18, final,
2023-05-22,-0.15, -1.13, -0.36, 2.05, 1.46, 7.16, final,
2023-05-23,-0.42, -0.98, 2.38, 1.99, 1.43, 7.01, final,
2023-05-24,0.33, -1.35, -2.91, 1.99, 1.43, 7.03, final,
2023-05-25,-0.90, -0.12, 1.69, 1.99, 1.42, 7.01, final,
2023-05-26,0.59, -0.79, 2.00, 1.98, 1.42, 6.97, final,
2023-05-27,-1.11, -1.78, 2.69, 1.99, 1.42, 7.01, final,
2023-05-28,-0.72, -0.13, 6.00, 2.00, 1.42, 7.03, final,
2023-05-29,-0.35, -0.71, 0.11, 1.99, 1.42, 7.04, final,
2023-05-30,0.24, -0.78, 4.95, 1.98, 1.41, 6.96, final,
2023-05-31,-0.16, -0.79, 6.49, 2.00, 1.42, 7.01, final,
2023-06-01,0.27, -0.64, -0.29, 2.00, 1.42, 7.01, final,
2023-06-02,-0.49, 0.08, 0.78, 2.05, 1.45, 7.12, final,
2023-06-03,0.03, 0.10, -3.95, 2.02, 1.42, 7.06, final,
2023-06-04,-0.18, -0.55, -2.21, 2.02, 1.42, 7.04, final,
2023-06-05,-0.76, -0.16, 3.97, 2.00, 1.41, 6.93, final,
2023-06-06,-0.83, 0.24, 4.63, 2.02, 1.41, 6.98, final,
2023-06-07,-0.31, 0.94, 2.46, 2.02, 1.42, 7.00, final,
2023-06-08,-1.29, 0.21, 6.58, 2.06, 1.44, 7.15, final,
2023-06-09,-1.33, 0.58, 5.26, 2.05, 1.43, 7.07, final,
2023-06-10,-0.06, 0.80, 3.85, 2.02, 1.41, 7.01, final,
2023-06-11,-0.16, -0.02, 6.23, 2.01, 1.41, 6.95, rapid,
2023-06-12,-0.47, 1.49, 7.30, 2.01, 1.42, 6.99, rapid,
2023-06-13,-2.85, 0.27, 14.87, 2.04, 1.44, 7.14, rapid,
2023-06-14,-0.57, -1.07, 14.25, 2.02, 1.42, 7.02, rapid,
2023-06-15,-1.61, 0.23, 8.40, 2.02, 1.41, 6.98, rapid,
2023-06-16,-1.02, -0.66, 8.61, 2.03, 1.43, 7.07, rapid,
2023-06-17,-1.73, -0.12, 13.24, 2.03, 1.43, 7.06, rapid,
2023-06-18,-1.45, -0.48, 9.23, 2.01, 1.42, 6.99, rapid,
2023-06-19,-2.58, 0.44, 11.01, 2.02, 1.42, 7.03, rapid,
2023-06-20,-1.87, -0.03, 2.74, 2.02, 1.41, 7.00, rapid,
2023-06-21,-2.36, 0.30, 2.37, 2.01, 1.41, 6.98, rapid,
2023-06-22,-1.43, -0.27, 9.46, 2.01, 1.41, 6.96, rapid,
2023-06-23,-1.58, 0.39, 10.89, 2.03, 1.43, 7.07, rapid,
2023-06-24,-2.37, 0.92, 6.87, 2.03, 1.42, 7.06, rapid,
2023-06-25,-2.41, 1.27, 11.88, 2.04, 1.43, 7.12, rapid,
2023-06-26,-2.34, 1.51, 12.83, 2.02, 1.42, 7.02, rapid,
